HK4RAU-80 Weather Reports


time (UTC)temp
F
wind
direction
speed
knots
gust
knots
rain 1hr
in
rain 24hr
in
rain mn
in
humidity
%
barometer
mb
20260508093108 53 152 3.5 3.5 0.00 0.00 0.00 91 1017.0
20260508092802 53 152 3.5 3.5 0.00 0.00 0.00 91 1017.0
20260508092455 52 152 3.5 3.5 0.00 0.00 0.00 91 1017.0
20260508092154 51 152 3.5 3.5 0.00 0.00 0.00 91 1017.0
20260508091850 51 152 3.5 3.5 0.00 0.00 0.00 91 1017.0
20260508091544 51 152 3.5 3.5 0.00 0.00 0.00 91 1017.0
20260508091237 54 152 3.5 3.5 0.00 0.00 0.00 91 1017.0
20260508090925 54 152 3.5 3.5 0.00 0.00 0.00 91 1017.0
20260508090621 53 152 3.5 3.5 0.00 0.00 0.00 91 1017.0
20260508090315 54 152 3.5 3.5 0.00 0.00 0.00 91 1017.0
20260508090014 53 152 3.5 3.5 0.00 0.00 0.00 91 1017.0
20260508085706 52 152 3.5 3.5 0.00 0.00 0.00 91 1017.0
20260508085404 51 152 3.5 3.5 0.00 0.00 0.00 91 1017.0
20260508085051 51 152 3.5 3.5 0.00 0.00 0.00 91 1017.0
20260508084744 51 152 3.5 3.5 0.00 0.00 0.00 91 1017.0
20260508084437 51 152 3.5 3.5 0.00 0.00 0.00 91 1017.0
20260508084131 54 158 3.5 2.6 0.00 0.00 0.00 91 1017.0
20260508083824 52 152 3.5 3.5 0.00 0.00 0.00 91 1017.0
20260508083523 51 152 3.5 3.5 0.00 0.00 0.00 91 1017.0
20260508083216 54 158 3.5 2.6 0.00 0.00 0.00 91 1017.0
20260508082910 53 158 3.5 2.6 0.00 0.00 0.00 91 1017.0
20260508082603 53 158 3.5 2.6 0.00 0.00 0.00 91 1017.0
20260508082251 52 158 3.5 2.6 0.00 0.00 0.00 91 1017.0
20260508081940 53 158 3.5 2.6 0.00 0.00 0.00 91 1017.0
20260508081633 52 158 3.5 2.6 0.00 0.00 0.00 91 1017.0
20260508081332 52 158 3.5 2.6 0.00 0.00 0.00 91 1017.0
20260508081025 52 158 3.5 2.6 0.00 0.00 0.00 91 1017.0
20260508080719 51 158 3.5 2.6 0.00 0.00 0.00 91 1017.0
20260508080412 51 158 3.5 2.6 0.00 0.00 0.00 91 1017.0
20260508080106 54 158 3.5 2.6 0.00 0.00 0.00 91 1017.0
20260508075759 51 158 3.5 2.6 0.00 0.00 0.00 91 1017.0
20260508075458 54 158 3.5 2.6 0.00 0.00 0.00 91 1017.0
20260508075153 53 158 3.5 2.6 0.00 0.00 0.00 91 1017.0
20260508074846 52 158 3.5 2.6 0.00 0.00 0.00 91 1017.0
20260508074545 52 158 3.5 2.6 0.00 0.00 0.00 91 1017.0
20260508074243 51 158 3.5 2.6 0.00 0.00 0.00 91 1017.0
20260508073636 51 158 3.5 2.6 0.00 0.00 0.00 91 1017.0
20260508073334 51 158 3.5 2.6 0.00 0.00 0.00 91 1017.0
20260508072427 55 160 2.6 2.6 0.00 0.00 0.00 91 1017.0
20260508070818 54 160 2.6 2.6 0.00 0.00 0.00 91 1017.0
20260508070214 53 160 2.6 2.6 0.00 0.00 0.00 91 1017.0
20260508064002 55 150 2.6 2.6 0.00 0.00 0.00 92 1017.0
20260508063656 55 150 2.6 2.6 0.00 0.00 0.00 92 1016.0
20260508063043 54 150 2.6 2.6 0.00 0.00 0.00 92 1018.0
20260508062736 55 150 2.6 2.6 0.00 0.00 0.00 92 1018.0
20260508062430 54 150 2.6 2.6 0.00 0.00 0.00 92 1018.0
20260508062128 53 150 2.6 2.6 0.00 0.00 0.00 92 1018.0
20260508061827 53 150 2.6 2.6 0.00 0.00 0.00 92 1018.0
20260508061521 53 150 2.6 2.6 0.00 0.00 0.00 92 1018.0
20260508061209 53 150 2.6 2.6 0.00 0.00 0.00 92 1018.0
20260508060903 55 150 2.6 2.6 0.00 0.00 0.00 92 1018.0
20260508060556 55 150 2.6 2.6 0.00 0.00 0.00 92 1018.0
20260508060249 55 150 2.6 2.6 0.00 0.00 0.00 92 1018.0
20260508055942 55 150 2.6 2.6 0.00 0.00 0.00 92 1018.0
20260508055638 55 150 2.6 2.6 0.00 0.00 0.00 92 1018.0
20260508055334 54 150 2.6 2.6 0.00 0.00 0.00 92 1018.0
20260508055027 54 150 2.6 2.6 0.00 0.00 0.00 92 1018.0
20260508054721 54 150 2.6 2.6 0.00 0.00 0.00 92 1018.0
20260508054414 53 150 2.6 2.6 0.00 0.00 0.00 92 1018.0
20260508054113 55 150 2.6 2.6 0.00 0.00 0.00 92 1018.0
20260508053810 54 150 2.6 2.6 0.00 0.00 0.00 92 1018.0
20260508053509 53 150 2.6 2.6 0.00 0.00 0.00 92 1018.0
20260508053208 55 150 2.6 2.6 0.00 0.00 0.00 93 1019.0
20260508052903 55 150 2.6 2.6 0.00 0.00 0.00 93 1019.0
20260508052557 55 150 2.6 2.6 0.00 0.00 0.00 93 1019.0
20260508052250 55 150 2.6 2.6 0.00 0.00 0.00 93 1019.0
20260508051949 54 150 2.6 2.6 0.00 0.00 0.00 93 1019.0
20260508051642 54 150 2.6 2.6 0.00 0.00 0.00 93 1019.0
20260508051336 54 150 2.6 2.6 0.00 0.00 0.00 93 1019.0
20260508051029 54 150 2.6 2.6 0.00 0.00 0.00 93 1019.0
20260508050723 53 150 2.6 2.6 0.00 0.00 0.00 93 1019.0
20260508050416 53 150 2.6 2.6 0.00 0.00 0.00 93 1019.0
20260508050110 53 150 2.6 2.6 0.00 0.00 0.00 93 1019.0
20260508045758 55 150 2.6 2.6 0.00 0.00 0.00 93 1019.0
20260508045452 54 150 2.6 2.6 0.00 0.00 0.00 93 1019.0
20260508045141 54 150 2.6 2.6 0.00 0.00 0.00 93 1019.0
20260508044834 53 150 2.6 2.6 0.00 0.00 0.00 93 1019.0
20260508044226 55 147 2.6 2.6 0.00 0.00 0.00 93 1019.0
20260508043924 55 147 2.6 2.6 0.00 0.00 0.00 93 1019.0
20260508043616 54 147 2.6 2.6 0.00 0.00 0.00 93 1019.0
20260508043310 55 147 2.6 2.6 0.00 0.00 0.00 93 1019.0
20260508043008 54 147 2.6 2.6 0.00 0.00 0.00 93 1019.0
20260508042702 53 147 2.6 2.6 0.00 0.00 0.00 93 1019.0
20260508042356 53 147 2.6 2.6 0.00 0.00 0.00 93 1019.0
20260508042049 53 147 2.6 2.6 0.00 0.00 0.00 93 1019.0
20260508041446 56 147 2.6 2.6 0.00 0.00 0.00 93 1019.0
20260508041138 55 147 2.6 2.6 0.00 0.00 0.00 93 1019.0
20260508040835 56 147 2.6 2.6 0.00 0.00 0.00 93 1019.0
20260508040533 55 147 2.6 2.6 0.00 0.00 0.00 93 1019.0
20260508040220 54 147 2.6 2.6 0.00 0.00 0.00 93 1019.0
20260508035914 54 147 2.6 2.6 0.00 0.00 0.00 93 1019.0
20260508035607 53 147 2.6 2.6 0.00 0.00 0.00 93 1019.0
20260508035259 54 147 2.6 2.6 0.00 0.00 0.00 93 1019.0
20260508034952 53 147 2.6 2.6 0.00 0.00 0.00 93 1019.0
20260508034650 53 147 2.6 2.6 0.00 0.00 0.00 93 1019.0
20260508034348 56 148 2.6 2.6 0.00 0.00 0.00 94 1019.0
20260508034037 55 148 2.6 2.6 0.00 0.00 0.00 94 1019.0
20260508033731 56 148 2.6 2.6 0.00 0.00 0.00 94 1019.0
20260508033429 56 148 2.6 2.6 0.00 0.00 0.00 94 1019.0
20260508033128 55 148 2.6 2.6 0.00 0.00 0.00 94 1019.0
20260508032821 54 148 2.6 2.6 0.00 0.00 0.00 94 1019.0
20260508032517 53 148 2.6 2.6 0.00 0.00 0.00 94 1019.0
20260508032206 54 148 2.6 2.6 0.00 0.00 0.00 94 1019.0
20260508031904 54 148 2.6 2.6 0.00 0.00 0.00 94 1019.0
20260508031558 53 148 2.6 2.6 0.00 0.00 0.00 94 1019.0
20260508031250 56 148 2.6 2.6 0.00 0.00 0.00 94 1019.0
20260508030949 56 148 2.6 2.6 0.00 0.00 0.00 94 1019.0
20260508030643 56 148 2.6 2.6 0.00 0.00 0.00 94 1019.0
20260508030336 55 148 2.6 2.6 0.00 0.00 0.00 94 1019.0
20260508030035 55 148 2.6 2.6 0.00 0.00 0.00 94 1019.0
20260508025729 55 148 2.6 2.6 0.00 0.00 0.00 94 1019.0
20260508025427 54 148 2.6 2.6 0.00 0.00 0.00 94 1019.0
20260508025116 53 148 2.6 2.6 0.00 0.00 0.00 94 1019.0
20260508024810 54 148 2.6 2.6 0.00 0.00 0.00 94 1019.0
20260508024508 53 148 2.6 2.6 0.00 0.00 0.00 94 1019.0
20260508024207 53 148 2.6 2.6 0.00 0.00 0.00 94 1019.0
20260508023900 57 150 2.6 2.6 0.00 0.00 0.00 95 1018.0
20260508023559 57 150 2.6 2.6 0.00 0.00 0.00 95 1018.0
20260508023258 57 150 2.6 2.6 0.00 0.00 0.00 95 1018.0
20260508022956 56 150 2.6 2.6 0.00 0.00 0.00 95 1018.0
20260508022650 55 150 2.6 2.6 0.00 0.00 0.00 95 1018.0
20260508022344 54 150 2.6 2.6 0.00 0.00 0.00 95 1018.0
20260508022040 54 150 2.6 2.6 0.00 0.00 0.00 95 1018.0
20260508021736 53 150 2.6 2.6 0.00 0.00 0.00 95 1018.0
20260508021120 53 150 2.6 2.6 0.00 0.00 0.00 95 1018.0
20260508020814 57 133 0.9 0.9 0.00 0.00 0.00 95 1018.0
20260508020505 56 133 0.9 0.9 0.00 0.00 0.00 95 1018.0
20260508020203 57 133 0.9 0.9 0.00 0.00 0.00 95 1018.0
20260508015855 57 133 0.9 0.9 0.00 0.00 0.00 95 1018.0
20260508015549 56 133 0.9 0.9 0.00 0.00 0.00 95 1018.0
20260508015244 55 133 0.9 0.9 0.00 0.00 0.00 95 1018.0
20260508014938 54 133 0.9 0.9 0.00 0.00 0.00 95 1018.0
20260508014631 55 133 0.9 0.9 0.00 0.00 0.00 95 1018.0
20260508014327 54 133 0.9 0.9 0.00 0.00 0.00 95 1018.0
20260508013940 54 133 0.9 0.9 0.00 0.00 0.00 95 1018.0
20260508013633 53 133 1.7 1.7 0.00 0.00 0.00 95 1017.0
20260508013007 54 133 0.9 0.9 0.00 0.00 0.00 95 1018.0
20260508012701 53 133 1.7 1.7 0.00 0.00 0.00 95 1017.0
20260508012358 53 133 1.7 1.7 0.00 0.00 0.00 95 1017.0
20260508012056 57 133 0.9 0.9 0.00 0.00 0.00 95 1017.0
20260508011749 57 133 0.9 0.9 0.00 0.00 0.00 95 1017.0
20260508011129 56 133 0.9 0.9 0.00 0.00 0.00 95 1017.0
20260508010828 55 133 1.7 1.7 0.00 0.00 0.00 95 1017.0
20260508010521 55 133 1.7 1.7 0.00 0.00 0.00 95 1017.0
20260508010212 55 133 1.7 1.7 0.00 0.00 0.00 95 1017.0
20260508005911 55 133 1.7 1.7 0.00 0.00 0.00 95 1017.0
20260508005609 55 133 1.7 1.7 0.00 0.00 0.00 95 1017.0
20260508005305 57 133 0.9 0.9 0.00 0.00 0.00 95 1017.0
20260508004955 56 133 0.9 0.9 0.00 0.00 0.00 95 1017.0
20260508004654 56 133 0.9 0.9 0.00 0.00 0.00 95 1017.0
20260508004347 55 133 1.7 1.7 0.00 0.00 0.00 95 1017.0
20260508004040 57 133 0.9 0.9 0.00 0.00 0.00 93 1017.0
20260508003729 55 133 1.7 1.7 0.00 0.00 0.00 95 1017.0
20260508003427 57 133 0.9 0.9 0.00 0.00 0.00 93 1017.0
20260508003126 56 133 0.9 0.9 0.00 0.00 0.00 93 1014.0
20260508002819 56 133 0.9 0.9 0.00 0.00 0.00 93 1014.0
20260508002513 56 133 0.9 0.9 0.00 0.00 0.00 93 1014.0
20260508001848 56 133 0.9 0.9 0.00 0.00 0.00 93 1014.0
20260508001536 55 133 1.7 1.7 0.00 0.00 0.00 93 1016.0
20260508001227 55 133 1.7 1.7 0.00 0.00 0.00 93 1016.0
20260508000904 59 133 1.7 1.7 0.00 0.00 0.00 93 1016.0
20260508000557 55 133 1.7 1.7 0.00 0.00 0.00 93 1016.0
20260508000251 59 133 1.7 1.7 0.00 0.00 0.00 93 1016.0
20260507235944 59 133 1.7 1.7 0.00 0.00 0.00 93 1016.0
20260507235642 59 133 1.7 1.7 0.00 0.00 0.00 93 1016.0
20260507235335 59 133 1.7 1.7 0.00 0.00 0.00 93 1016.0
20260507235029 59 133 1.7 1.7 0.00 0.00 0.00 93 1016.0
20260507234722 59 133 1.7 1.7 0.00 0.00 0.00 93 1016.0
20260507234416 59 133 1.7 1.7 0.00 0.00 0.00 93 1016.0
20260507234103 59 133 1.7 1.7 0.00 0.00 0.00 93 1016.0
20260507233802 59 133 1.7 1.7 0.00 0.00 0.00 93 1016.0
20260507233455 59 133 1.7 1.7 0.00 0.00 0.00 93 1016.0
20260507233149 61 16 0.9 0.9 0.00 0.00 0.00 90 1014.0
20260507232842 61 16 0.9 0.9 0.00 0.00 0.00 90 1014.0
20260507232536 61 16 0.9 0.9 0.00 0.00 0.00 90 1014.0
20260507232229 60 16 0.9 0.9 0.00 0.00 0.00 90 1014.0
20260507231928 61 16 0.9 0.9 0.00 0.00 0.00 90 1014.0
20260507231621 60 16 0.9 0.9 0.00 0.00 0.00 90 1014.0
20260507231314 60 16 0.9 0.9 0.00 0.00 0.00 90 1014.0
20260507231013 59 16 0.9 0.9 0.00 0.00 0.00 90 1014.0
20260507230706 59 16 0.9 0.9 0.00 0.00 0.00 90 1014.0
20260507230359 62 16 0.9 0.9 0.00 0.00 0.00 90 1014.0
20260507230053 62 16 0.9 0.9 0.00 0.00 0.00 90 1014.0
20260507225742 62 16 0.9 0.9 0.00 0.00 0.00 90 1014.0
20260507225436 62 16 0.9 0.9 0.00 0.00 0.00 90 1014.0
20260507225129 62 16 0.9 0.9 0.00 0.00 0.00 90 1014.0
20260507224822 62 16 0.9 0.9 0.00 0.00 0.00 90 1014.0
20260507224516 62 16 0.9 0.9 0.00 0.00 0.00 90 1014.0
20260507224215 62 16 0.9 0.9 0.00 0.00 0.00 90 1014.0
20260507223903 62 16 0.9 0.9 0.00 0.00 0.00 90 1014.0
20260507223556 62 16 0.9 0.9 0.00 0.00 0.00 90 1014.0
20260507223250 62 16 0.9 0.9 0.00 0.00 0.00 90 1014.0
20260507222943 66 32 0.9 2.6 0.00 0.00 0.00 75 1013.0
20260507222636 66 32 0.9 2.6 0.00 0.00 0.00 75 1013.0
20260507222324 62 32 0.9 2.6 0.00 0.00 0.00 75 1013.0
20260507222023 66 32 0.9 2.6 0.00 0.00 0.00 75 1013.0
20260507221721 65 32 0.9 2.6 0.00 0.00 0.00 75 1013.0
20260507221415 65 32 0.9 2.6 0.00 0.00 0.00 75 1013.0
20260507221107 65 32 0.9 2.6 0.00 0.00 0.00 75 1013.0
20260507220806 65 32 0.9 2.6 0.00 0.00 0.00 75 1013.0
20260507220505 64 32 0.9 2.6 0.00 0.00 0.00 75 1013.0
20260507220203 64 32 0.9 2.6 0.00 0.00 0.00 75 1013.0
20260507215854 66 32 0.9 2.6 0.00 0.00 0.00 75 1013.0
20260507215547 65 32 0.9 2.6 0.00 0.00 0.00 75 1013.0
20260507215241 65 32 0.9 2.6 0.00 0.00 0.00 75 1013.0
20260507214940 66 32 0.9 2.6 0.00 0.00 0.00 75 1013.0
20260507214638 65 32 0.9 2.6 0.00 0.00 0.00 75 1013.0
20260507214332 64 32 0.9 2.6 0.00 0.00 0.00 75 1013.0
20260507214023 64 32 0.9 2.6 0.00 0.00 0.00 75 1013.0
20260507213717 65 32 0.9 2.6 0.00 0.00 0.00 75 1013.0
20260507213415 64 32 0.9 2.6 0.00 0.00 0.00 75 1013.0
20260507213114 64 32 0.9 2.6 0.00 0.00 0.00 75 1013.0
20260507212807 64 105 1.7 3.5 0.00 0.00 0.00 80 1013.0
20260507212506 64 105 1.7 3.5 0.00 0.00 0.00 80 1013.0
20260507212204 64 105 1.7 3.5 0.00 0.00 0.00 80 1013.0
20260507211903 64 105 1.7 3.5 0.00 0.00 0.00 80 1013.0
20260507211557 64 105 1.7 3.5 0.00 0.00 0.00 80 1013.0
20260507211245 64 105 1.7 3.5 0.00 0.00 0.00 80 1013.0
20260507210938 64 105 1.7 3.5 0.00 0.00 0.00 80 1013.0
20260507210634 64 105 1.7 3.5 0.00 0.00 0.00 80 1013.0
20260507210322 68 105 1.7 3.5 0.00 0.00 0.00 80 1013.0
20260507210011 68 105 1.7 3.5 0.00 0.00 0.00 80 1013.0
20260507205704 68 105 1.7 3.5 0.00 0.00 0.00 80 1013.0
20260507205358 68 105 1.7 3.5 0.00 0.00 0.00 80 1013.0
20260507205050 68 105 1.7 3.5 0.00 0.00 0.00 80 1013.0
20260507204743 68 105 1.7 3.5 0.00 0.00 0.00 80 1013.0
20260507204437 68 105 1.7 3.5 0.00 0.00 0.00 80 1013.0
20260507204130 68 105 1.7 3.5 0.00 0.00 0.00 80 1013.0
20260507203824 68 105 1.7 3.5 0.00 0.00 0.00 80 1013.0
20260507203517 68 105 1.7 3.5 0.00 0.00 0.00 80 1013.0
20260507203211 68 105 1.7 3.5 0.00 0.00 0.00 80 1013.0
20260507202903 68 112 2.6 4.3 0.00 0.00 0.00 84 1014.0
20260507202552 68 112 2.6 4.3 0.00 0.00 0.00 84 1014.0
20260507202240 68 112 2.6 4.3 0.00 0.00 0.00 84 1014.0
20260507201634 68 112 2.6 4.3 0.00 0.00 0.00 84 1014.0
20260507201319 68 112 2.6 4.3 0.00 0.00 0.00 84 1014.0
20260507201012 68 112 2.6 4.3 0.00 0.00 0.00 84 1014.0
20260507200702 68 112 2.6 4.3 0.00 0.00 0.00 84 1014.0
20260507200355 68 112 2.6 4.3 0.00 0.00 0.00 84 1014.0
20260507200053 68 112 2.6 4.3 0.00 0.00 0.00 84 1014.0
20260507195747 68 112 2.6 4.3 0.00 0.00 0.00 84 1014.0
20260507195441 68 112 2.6 4.3 0.00 0.00 0.00 84 1014.0
20260507195057 68 112 2.6 4.3 0.00 0.00 0.00 84 1014.0
20260507194749 68 112 2.6 4.3 0.00 0.00 0.00 84 1014.0
20260507194448 68 112 2.6 4.3 0.00 0.00 0.00 84 1014.0
20260507193519 68 112 2.6 4.3 0.00 0.00 0.00 84 1014.0
20260507193212 68 92 2.6 4.3 0.00 0.00 0.00 78 1014.0
20260507192901 68 92 2.6 4.3 0.00 0.00 0.00 78 1014.0
20260507191220 68 92 2.6 4.3 0.00 0.00 0.00 78 1014.0
20260507190919 69 92 2.6 4.3 0.00 0.00 0.00 78 1014.0
20260507190614 68 92 2.6 4.3 0.00 0.00 0.00 78 1014.0
20260507190308 69 92 2.6 4.3 0.00 0.00 0.00 78 1014.0
20260507190002 69 92 2.6 4.3 0.00 0.00 0.00 78 1014.0
20260507185655 69 92 2.6 4.3 0.00 0.00 0.00 78 1014.0
20260507185348 69 92 2.6 4.3 0.00 0.00 0.00 78 1014.0
20260507185047 69 92 2.6 4.3 0.00 0.00 0.00 78 1014.0
20260507184740 69 92 2.6 4.3 0.00 0.00 0.00 78 1014.0
20260507184433 69 92 2.6 4.3 0.00 0.00 0.00 78 1014.0
20260507184122 69 92 2.6 4.3 0.00 0.00 0.00 78 1014.0
20260507183816 69 2 3.5 2.6 0.00 0.00 0.00 69 1011.0
20260507183509 69 2 3.5 2.6 0.00 0.00 0.00 69 1011.0
20260507183205 69 2 3.5 2.6 0.00 0.00 0.00 69 1011.0
20260507182859 71 58 0.9 4.3 0.00 0.00 0.00 61 1012.0
20260507182552 70 58 0.9 4.3 0.00 0.00 0.00 61 1013.0
20260507182246 69 58 0.9 4.3 0.00 0.00 0.00 61 1013.0
20260507181939 69 58 0.9 4.3 0.00 0.00 0.00 61 1013.0
20260507181628 69 58 0.9 4.3 0.00 0.00 0.00 61 1013.0
20260507181312 69 58 0.9 4.3 0.00 0.00 0.00 61 1013.0
20260507181010 71 58 0.9 4.3 0.00 0.00 0.00 61 1013.0
20260507180704 70 58 0.9 4.3 0.00 0.00 0.00 61 1013.0
20260507180351 70 58 0.9 4.3 0.00 0.00 0.00 61 1013.0
20260507180045 69 58 0.9 4.3 0.00 0.00 0.00 61 1013.0
20260507175738 70 58 0.9 4.3 0.00 0.00 0.00 61 1013.0
20260507175437 69 58 0.9 4.3 0.00 0.00 0.00 61 1013.0
20260507175130 71 108 0.9 4.3 0.00 0.00 0.00 55 1013.0
20260507174827 71 108 0.9 4.3 0.00 0.00 0.00 55 1013.0
20260507174520 69 58 0.9 4.3 0.00 0.00 0.00 61 1013.0
20260507174218 71 108 0.9 4.3 0.00 0.00 0.00 55 1013.0
20260507173917 70 108 0.9 4.3 0.00 0.00 0.00 55 1013.0
20260507173615 70 108 0.9 4.3 0.00 0.00 0.00 55 1013.0
20260507173312 71 108 0.9 4.3 0.00 0.00 0.00 55 1013.0
20260507173007 70 108 0.9 4.3 0.00 0.00 0.00 55 1013.0
20260507172700 69 108 1.7 5.2 0.00 0.00 0.00 55 1015.0
20260507172355 69 108 1.7 5.2 0.00 0.00 0.00 55 1015.0
20260507172039 73 107 2.6 4.3 0.00 0.00 0.00 57 1015.0
20260507171736 73 107 2.6 4.3 0.00 0.00 0.00 57 1015.0
20260507171433 73 107 2.6 4.3 0.00 0.00 0.00 57 1015.0
20260507171130 73 107 2.6 4.3 0.00 0.00 0.00 57 1015.0
20260507170829 72 107 2.6 4.3 0.00 0.00 0.00 57 1015.0
20260507170517 73 107 2.6 4.3 0.00 0.00 0.00 57 1015.0
20260507170216 72 107 2.6 4.3 0.00 0.00 0.00 57 1015.0
20260507165910 71 107 2.6 4.3 0.00 0.00 0.00 57 1015.0
20260507165603 71 107 2.6 4.3 0.00 0.00 0.00 57 1015.0
20260507165251 72 107 2.6 4.3 0.00 0.00 0.00 57 1015.0
20260507164945 71 107 2.6 4.3 0.00 0.00 0.00 57 1015.0
20260507164638 70 107 2.6 4.3 0.00 0.00 0.00 57 1015.0
20260507164332 70 107 2.6 4.3 0.00 0.00 0.00 57 1015.0
20260507164021 69 107 2.6 5.2 0.00 0.00 0.00 57 1016.0
20260507163714 71 107 2.6 4.3 0.00 0.00 0.00 57 1016.0
20260507163412 71 107 2.6 4.3 0.00 0.00 0.00 57 1016.0
20260507163105 69 107 2.6 5.2 0.00 0.00 0.00 57 1016.0
20260507162759 71 107 2.6 4.3 0.00 0.00 0.00 57 1016.0
20260507162452 70 107 2.6 4.3 0.00 0.00 0.00 57 1016.0
20260507162151 71 107 2.6 4.3 0.00 0.00 0.00 57 1016.0
20260507161845 70 107 2.6 4.3 0.00 0.00 0.00 57 1016.0
20260507161539 69 107 2.6 5.2 0.00 0.00 0.00 57 1016.0
20260507161232 71 107 2.6 4.3 0.00 0.00 0.00 57 1016.0
20260507160920 70 107 2.6 4.3 0.00 0.00 0.00 57 1016.0
20260507160617 69 107 2.6 4.3 0.00 0.00 0.00 57 1016.0
20260507160311 69 107 2.6 4.3 0.00 0.00 0.00 57 1016.0
20260507160005 68 107 2.6 4.3 0.00 0.00 0.00 57 1016.0
20260507155658 68 107 2.6 4.3 0.00 0.00 0.00 57 1016.0
20260507155351 67 107 2.6 4.3 0.00 0.00 0.00 57 1016.0
20260507155045 67 107 2.6 4.3 0.00 0.00 0.00 57 1016.0
20260507154737 66 107 2.6 5.2 0.00 0.00 0.00 57 1016.0
20260507154430 66 107 2.6 5.2 0.00 0.00 0.00 57 1016.0
20260507154124 71 110 2.6 4.3 0.00 0.00 0.00 59 1016.0
20260507153819 70 110 2.6 4.3 0.00 0.00 0.00 59 1017.0
20260507153513 69 110 2.6 4.3 0.00 0.00 0.00 59 1017.0
20260507153207 66 107 2.6 5.2 0.00 0.00 0.00 57 1016.0
20260507152900 70 110 2.6 4.3 0.00 0.00 0.00 59 1017.0
20260507152559 69 110 2.6 4.3 0.00 0.00 0.00 59 1017.0
20260507152257 68 110 2.6 4.3 0.00 0.00 0.00 59 1017.0
20260507151951 67 110 2.6 4.3 0.00 0.00 0.00 59 1017.0
20260507151645 67 110 2.6 4.3 0.00 0.00 0.00 59 1017.0
20260507151343 66 110 2.6 5.2 0.00 0.00 0.00 59 1017.0
20260507151040 70 137 3.5 6.1 0.00 0.00 0.00 79 1017.0
20260507150734 66 110 2.6 5.2 0.00 0.00 0.00 59 1017.0
20260507150432 70 137 3.5 6.1 0.00 0.00 0.00 79 1017.0
20260507150131 70 137 3.5 6.1 0.00 0.00 0.00 79 1017.0
20260507145824 69 137 3.5 6.1 0.00 0.00 0.00 79 1017.0
20260507145518 69 137 3.5 6.1 0.00 0.00 0.00 79 1017.0
20260507145216 69 137 3.5 6.1 0.00 0.00 0.00 79 1017.0
20260507144909 68 137 3.5 6.1 0.00 0.00 0.00 79 1017.0
20260507144603 67 137 3.5 6.1 0.00 0.00 0.00 79 1017.0
20260507144302 67 137 3.5 6.1 0.00 0.00 0.00 79 1017.0
20260507143955 66 137 3.5 6.1 0.00 0.00 0.00 79 1017.0
20260507143648 67 137 3.5 6.1 0.00 0.00 0.00 79 1017.0
20260507143342 66 137 3.5 6.1 0.00 0.00 0.00 79 1017.0
20260507143036 66 137 3.5 6.1 0.00 0.00 0.00 79 1017.0
20260507142729 65 137 3.5 6.1 0.00 0.00 0.00 79 1018.0
20260507142427 64 137 3.5 6.1 0.00 0.00 0.00 79 1018.0
20260507142125 64 137 3.5 6.1 0.00 0.00 0.00 79 1018.0
20260507141824 63 137 3.5 6.1 0.00 0.00 0.00 79 1018.0
20260507141522 63 137 3.5 6.1 0.00 0.00 0.00 79 1018.0
20260507141216 62 137 3.5 6.1 0.00 0.00 0.00 79 1018.0
20260507140914 62 137 3.5 6.1 0.00 0.00 0.00 79 1018.0
20260507140608 61 137 3.5 6.1 0.00 0.00 0.00 79 1018.0
20260507140306 60 137 3.5 6.1 0.00 0.00 0.00 79 1018.0
20260507140006 60 137 3.5 6.1 0.00 0.00 0.00 79 1018.0
20260507135658 60 137 3.5 6.1 0.00 0.00 0.00 79 1018.0
20260507135352 59 137 3.5 6.1 0.00 0.00 0.00 79 1018.0
20260507135045 59 137 3.5 6.1 0.00 0.00 0.00 79 1018.0
20260507134739 59 137 3.5 6.1 0.00 0.00 0.00 79 1018.0
20260507134432 58 137 3.5 6.1 0.00 0.00 0.00 79 1018.0
20260507134131 59 137 3.5 6.1 0.00 0.00 0.00 79 1018.0
20260507133822 58 137 3.5 6.1 0.00 0.00 0.00 79 1018.0
20260507133516 58 137 3.5 6.1 0.00 0.00 0.00 79 1018.0
20260507133210 57 137 3.5 6.1 0.00 0.00 0.00 79 1018.0
20260507132903 57 137 3.5 6.1 0.00 0.00 0.00 79 1018.0
20260507132556 62 146 4.3 7.0 0.00 0.00 0.00 92 1018.0
20260507132245 58 137 3.5 6.1 0.00 0.00 0.00 79 1018.0
20260507131939 57 137 3.5 6.1 0.00 0.00 0.00 79 1018.0
20260507131632 62 146 4.3 7.0 0.00 0.00 0.00 92 1018.0
20260507131326 61 146 4.3 7.0 0.00 0.00 0.00 92 1018.0
20260507131024 61 146 4.3 7.0 0.00 0.00 0.00 92 1018.0
20260507130718 61 146 4.3 7.0 0.00 0.00 0.00 92 1018.0
20260507130416 61 146 4.3 7.0 0.00 0.00 0.00 92 1018.0
20260507130110 60 146 4.3 7.0 0.00 0.00 0.00 92 1018.0
20260507125809 61 146 4.3 7.0 0.00 0.00 0.00 92 1018.0
20260507125507 60 146 4.3 7.0 0.00 0.00 0.00 92 1018.0
20260507125201 60 146 4.3 7.0 0.00 0.00 0.00 92 1018.0
20260507124844 59 146 4.3 7.0 0.00 0.00 0.00 92 1018.0
20260507124538 58 146 4.3 7.0 0.00 0.00 0.00 92 1018.0
20260507124231 58 146 4.3 7.0 0.00 0.00 0.00 92 1018.0
20260507123925 57 146 4.3 7.0 0.00 0.00 0.00 92 1018.0
20260507123618 58 146 4.3 7.0 0.00 0.00 0.00 92 1018.0
20260507123307 57 146 4.3 7.0 0.00 0.00 0.00 92 1018.0
20260507123000 56 146 4.3 7.0 0.00 0.00 0.00 92 1018.0
20260507122653 55 146 4.3 7.0 0.00 0.00 0.00 92 1018.0
20260507122346 55 146 4.3 7.0 0.00 0.00 0.00 92 1018.0
20260507122040 54 146 4.3 7.0 0.00 0.00 0.00 92 1018.0
20260507121437 53 146 4.3 7.0 0.00 0.00 0.00 92 1018.0
20260507121130 53 146 4.3 7.0 0.00 0.00 0.00 92 1018.0
20260507120456 57 146 4.3 7.0 0.00 0.00 0.00 92 1018.0
20260507120154 56 146 4.3 7.0 0.00 0.00 0.00 92 1018.0
20260507115845 57 146 4.3 7.0 0.00 0.00 0.00 92 1018.0
20260507115538 56 146 4.3 7.0 0.00 0.00 0.00 92 1018.0
20260507114911 55 146 4.3 7.0 0.00 0.00 0.00 92 1018.0
20260507114610 57 147 4.3 7.0 0.00 0.00 0.00 90 1018.0
20260507114308 56 147 4.3 7.0 0.00 0.00 0.00 90 1018.0
20260507114002 55 147 5.2 7.8 0.00 0.00 0.00 90 1018.0
20260507113655 55 147 5.2 7.8 0.00 0.00 0.00 90 1018.0
20260507113354 55 147 5.2 7.8 0.00 0.00 0.00 90 1018.0
20260507113047 55 147 5.2 7.8 0.00 0.00 0.00 90 1018.0
20260507112741 55 148 5.2 7.8 0.00 0.00 0.00 94 1019.0
20260507112439 55 148 5.2 7.8 0.00 0.00 0.00 94 1019.0
20260507112132 55 148 5.2 7.8 0.00 0.00 0.00 94 1019.0
20260507111835 55 148 5.2 7.8 0.00 0.00 0.00 94 1019.0
20260507111524 55 148 5.2 7.8 0.00 0.00 0.00 94 1019.0
20260507111221 55 148 5.2 7.8 0.00 0.00 0.00 94 1019.0
20260507110915 55 148 5.2 7.8 0.00 0.00 0.00 94 1019.0
20260507110522 55 148 5.2 7.8 0.00 0.00 0.00 94 1019.0
20260507110220 55 148 5.2 7.8 0.00 0.00 0.00 94 1019.0
20260507105914 55 148 5.2 7.8 0.00 0.00 0.00 94 1019.0
20260507105607 55 148 5.2 7.8 0.00 0.00 0.00 94 1019.0
20260507105300 55 148 5.2 7.8 0.00 0.00 0.00 94 1019.0
20260507104647 55 148 5.2 7.8 0.00 0.00 0.00 94 1019.0
20260507104346 55 148 5.2 7.8 0.00 0.00 0.00 94 1019.0
20260507104034 55 148 5.2 7.8 0.00 0.00 0.00 94 1019.0
20260507103733 55 146 5.2 7.0 0.00 0.00 0.00 94 1018.0
20260507103426 55 146 5.2 7.0 0.00 0.00 0.00 94 1018.0
20260507103115 55 146 5.2 7.0 0.00 0.00 0.00 94 1018.0
20260507102808 55 146 5.2 7.0 0.00 0.00 0.00 94 1018.0
20260507102456 55 146 5.2 7.0 0.00 0.00 0.00 94 1018.0
20260507102155 55 146 5.2 7.0 0.00 0.00 0.00 94 1018.0
20260507101848 55 146 5.2 7.0 0.00 0.00 0.00 94 1018.0
20260507101537 55 146 5.2 7.0 0.00 0.00 0.00 94 1018.0
20260507101225 55 146 5.2 7.0 0.00 0.00 0.00 94 1018.0
20260507100919 55 146 5.2 7.0 0.00 0.00 0.00 94 1018.0
20260507100612 55 146 5.2 7.0 0.00 0.00 0.00 94 1018.0
20260507100311 55 146 5.2 7.0 0.00 0.00 0.00 94 1018.0
20260507100002 55 146 5.2 7.0 0.00 0.00 0.00 94 1018.0
20260507095659 55 146 5.2 7.0 0.00 0.00 0.00 94 1018.0
20260507095347 55 146 5.2 7.0 0.00 0.00 0.00 94 1018.0
20260507094734 55 146 5.2 7.0 0.00 0.00 0.00 94 1018.0
20260507094425 55 146 5.2 7.0 0.00 0.00 0.00 94 1018.0
20260507094118 55 146 5.2 7.0 0.00 0.00 0.00 94 1018.0
20260507093810 56 144 4.3 7.0 0.00 0.00 0.00 94 1017.0
20260507093509 55 146 5.2 7.0 0.00 0.00 0.00 94 1018.0